Location: Newark
(48.0000°N, 67.0000°E)
Time: 22:33:33
(UTC+00:00)

Vanguard 2 - Pass Details

Date: 28 February 2020
Orbit: 552 x 2938 km, 32.9° (Epoch: 06 April)

Event Time Altitude Azimuth Distance (km) Brightness Sun altitude
Exits shadow 00:18:08 23° 234° (SW) 3,404 10.3 -20.5°
Maximum altitude 00:24:06 35° 192° (SSW) 3,266 10.5 -19.6°
Drops below altitude 10° 00:37:49 10° 135° (SE) 5,601 12.4 -17.3°
Sets 00:43:05 0° 128° (SE) 6,749 13.1 -16.4°
